Caribou, ME

4:35 AM EST on February 23, 2017 (GMT -0500)
Caribou Municipal

Weather History for KCAR - April, 2014

Change the Weather History Date:

Thursday, April 24, 2014

  Actual Average Record
Temperature  
Mean Temperature 34 °F 43 °F  
Max Temperature 35 °F 53 °F 80 °F (1942)
Min Temperature 33 °F 33 °F 20 °F (2004)
Degree Days  
Heating Degree Days 31 22  
Month to date heating degree days 683 672  
Since 1 July heating degree days 8877 8647  
Cooling Degree Days 0 0  
Month to date cooling degree days 0 0  
Year to date cooling degree days 0 0  
Moisture  
Dew Point 31 °F    
Average Humidity 93    
Maximum Humidity 96    
Minimum Humidity 89    
Precipitation  
Precipitation 0.80 in 0.08 in 1.28 in (1970)
Month to date precipitation 4.37 2.12  
Year to date precipitation 14.03 9.55  
Snow  
Snow 3.30 in 0.10 in 3.30 in (2014)
Month to date snowfall 9.2 6.9  
Since 1 July snowfall 150.7 107.7  
Snow Depth 2.00 in    
Sea Level Pressure  
Sea Level Pressure 29.63 in    
Wind  
Wind Speed 13 mph (North)    
Max Wind Speed 21 mph    
Max Gust Speed 26 mph    
Visibility 2 miles    
Events Rain , Snow    
T = Trace of Precipitation, MM = Missing Value Source: NWS Daily Summary

Daily Weather History Graph

Daily Weather History Graph

Search for Another Location

Airport or City:

Trip Planner

Search our weather history database for the weather conditions in past years. The results will help you decide how hot, cold, wet, or windy it might be!

Date:

Astronomy

Apr. 24, 2014 Rise Set
Actual Time 5:28 AM EDT 7:32 PM EDT
Civil Twilight 4:55 AM EDT 8:05 PM EDT
Nautical Twilight 4:15 AM EDT 8:46 PM EDT
Astronomical Twilight 3:30 AM EDT 9:31 PM EDT
Moon 2:57 AM EDT (4/24) 2:26 PM EDT (4/24)
Length of Visible Light 15h 10m
Length of Day
14h 04m
Waning Crescent, 24% of the Moon is Illuminated
Apr 24
Waning Crescent
Apr 29
New
May 6
First Quarter
May 14
Full
May 21
Last Quarter

Hourly Weather History & Observations

Time (EDT) Temp. Windchill Dew Point Humidity Pressure Visibility Wind Dir Wind Speed Gust Speed Precip Events Conditions
12:54 AM 34.0 °F 23.8 °F 30.9 °F 89% 29.51 in 10.0 mi NNW 16.1 mph - 0.00 in Rain Light Rain
1:44 AM 34.0 °F 23.4 °F 30.9 °F 89% 29.48 in 5.0 mi NNW 17.3 mph 23.0 mph 0.01 in Snow Light Snow
1:54 AM 33.1 °F 23.4 °F 30.9 °F 92% 29.51 in 3.0 mi NNW 13.8 mph 23.0 mph 0.02 in Snow Light Snow
2:06 AM 33.1 °F 23.4 °F 30.9 °F 92% 29.48 in 2.5 mi NNW 13.8 mph - 0.01 in Snow Light Snow
2:24 AM 33.1 °F 23.0 °F 30.9 °F 92% 29.48 in 1.5 mi NNW 15.0 mph 21.9 mph 0.02 in Snow Light Snow
2:54 AM 33.1 °F 22.2 °F 30.9 °F 92% 29.50 in 1.2 mi NNW 17.3 mph 25.3 mph 0.06 in Snow Light Snow
3:14 AM 33.1 °F 21.9 °F 30.9 °F 92% 29.47 in 1.0 mi NNW 18.4 mph 24.2 mph 0.04 in Snow Light Snow
3:24 AM 33.1 °F 23.0 °F 30.9 °F 92% 29.47 in 1.2 mi NNW 15.0 mph 23.0 mph 0.07 in Snow Light Snow
3:29 AM 33.1 °F 22.6 °F 30.9 °F 92% 29.47 in 1.8 mi NNW 16.1 mph 23.0 mph 0.08 in Snow Light Snow
3:44 AM 33.1 °F 22.6 °F 30.9 °F 92% 29.47 in 1.2 mi NNW 16.1 mph - 0.11 in Snow Light Snow
3:54 AM 33.1 °F 22.6 °F 30.9 °F 92% 29.50 in 1.0 mi NNW 16.1 mph - 0.12 in Snow Light Snow
4:31 AM 33.1 °F 23.0 °F 30.9 °F 92% 29.47 in 1.5 mi NNW 15.0 mph - 0.04 in Snow Light Snow
4:42 AM 33.1 °F 23.4 °F 30.9 °F 92% 29.48 in 1.5 mi NNW 13.8 mph - 0.05 in Snow Light Snow
4:50 AM 33.8 °F 23.9 °F 30.2 °F 87% 29.48 in 1.5 mi NNW 15.0 mph - 0.05 in Snow Light Snow
4:54 AM 33.1 °F 22.6 °F 30.9 °F 92% 29.50 in 1.8 mi NNW 16.1 mph 23.0 mph 0.06 in Snow Light Snow
5:03 AM 33.1 °F 23.0 °F 30.9 °F 92% 29.48 in 2.0 mi NNW 15.0 mph 23.0 mph 0.01 in Snow Light Snow
5:19 AM 33.1 °F 23.9 °F 30.9 °F 92% 29.48 in 3.0 mi NNW 12.7 mph - 0.01 in Snow Light Snow
5:54 AM 33.1 °F 22.6 °F 30.9 °F 92% 29.51 in 2.0 mi NNW 16.1 mph 23.0 mph 0.03 in Snow Light Snow
6:02 AM 33.1 °F 23.0 °F 30.9 °F 92% 29.49 in 1.8 mi NNW 15.0 mph 21.9 mph 0.00 in Snow Light Snow
6:36 AM 33.1 °F 23.0 °F 30.9 °F 92% 29.49 in 1.2 mi North 15.0 mph 24.2 mph 0.03 in Snow Light Snow
6:54 AM 33.1 °F 22.2 °F 30.9 °F 92% 29.52 in 1.0 mi NNW 17.3 mph 24.2 mph 0.03 in Snow Light Snow
7:39 AM 33.1 °F 23.4 °F 30.9 °F 92% 29.50 in 0.8 mi North 13.8 mph 25.3 mph 0.03 in Snow Light Snow
7:54 AM 33.1 °F 24.4 °F 30.9 °F 92% 29.54 in 0.8 mi North 11.5 mph 21.9 mph 0.04 in Snow Light Snow
7:59 AM 33.1 °F 22.6 °F 32.0 °F 96% 29.51 in 0.8 mi North 16.1 mph 23.0 mph 0.01 in Snow Light Snow
8:20 AM 33.1 °F 23.9 °F 32.0 °F 96% 29.52 in 0.8 mi North 12.7 mph - 0.03 in Snow Light Snow
8:25 AM 33.1 °F 23.9 °F 32.0 °F 96% 29.52 in 1.0 mi North 12.7 mph - 0.03 in Snow Light Snow
8:34 AM 34.0 °F 25.0 °F 32.0 °F 92% 29.52 in 1.5 mi North 12.7 mph 20.7 mph 0.04 in Snow Light Snow
8:43 AM 34.0 °F 24.6 °F 32.0 °F 92% 29.52 in 1.2 mi North 13.8 mph 23.0 mph 0.04 in Snow Light Snow
8:54 AM 34.0 °F 24.6 °F 32.0 °F 92% 29.56 in 1.2 mi North 13.8 mph - 0.05 in Snow Light Snow
9:03 AM 34.0 °F 24.2 °F 32.0 °F 92% 29.53 in 1.5 mi North 15.0 mph 21.9 mph 0.00 in Snow Light Snow
9:21 AM 34.0 °F 23.4 °F 32.0 °F 92% 29.54 in 1.2 mi North 17.3 mph - 0.01 in Snow Light Snow
9:27 AM 34.0 °F 24.6 °F 32.0 °F 92% 29.54 in 2.0 mi North 13.8 mph 23.0 mph 0.01 in Snow Light Snow
9:45 AM 34.0 °F 23.8 °F 32.0 °F 92% 29.55 in 2.0 mi North 16.1 mph 23.0 mph 0.02 in Snow Light Snow
9:54 AM 34.0 °F 23.8 °F 32.0 °F 92% 29.59 in 2.0 mi North 16.1 mph - 0.02 in Snow Light Snow
10:01 AM 34.0 °F 23.8 °F 32.0 °F 92% 29.56 in 2.0 mi North 16.1 mph 24.2 mph 0.01 in Snow Light Snow
10:09 AM 34.0 °F 24.2 °F 32.0 °F 92% 29.56 in 1.8 mi North 15.0 mph 23.0 mph 0.01 in Snow Light Snow
10:22 AM 34.0 °F 23.4 °F 32.0 °F 92% 29.57 in 1.8 mi North 17.3 mph - 0.02 in Snow Light Snow
10:38 AM 34.0 °F 23.8 °F 32.0 °F 92% 29.57 in 1.2 mi North 16.1 mph - 0.02 in Snow Light Snow
10:54 AM 34.0 °F 23.4 °F 32.0 °F 92% 29.61 in 1.0 mi North 17.3 mph - 0.03 in Snow Light Snow
11:23 AM 34.0 °F 23.0 °F 32.0 °F 92% 29.59 in 2.0 mi North 18.4 mph - 0.03 in Snow Light Snow
11:39 AM 34.0 °F 23.4 °F 32.0 °F 92% 29.59 in 1.2 mi North 17.3 mph 24.2 mph 0.03 in Snow Light Snow
11:46 AM 34.0 °F 23.0 °F 32.0 °F 92% 29.60 in 1.5 mi North 18.4 mph 25.3 mph 0.03 in Snow Light Snow
11:54 AM 34.0 °F 23.0 °F 32.0 °F 92% 29.63 in 1.8 mi North 18.4 mph 25.3 mph 0.04 in Snow Light Snow
12:04 PM 34.0 °F 23.4 °F 32.0 °F 92% 29.60 in 1.5 mi North 17.3 mph 25.3 mph 0.00 in Snow Light Snow
12:12 PM 34.0 °F 23.4 °F 32.0 °F 92% 29.60 in 1.2 mi North 17.3 mph - 0.00 in Snow Light Snow
12:54 PM 34.0 °F 25.0 °F 32.0 °F 92% 29.65 in 1.5 mi North 12.7 mph - 0.03 in Snow Light Snow
1:05 PM 34.0 °F 25.0 °F 32.0 °F 92% 29.63 in 2.0 mi North 12.7 mph 18.4 mph 0.01 in Snow Light Snow
1:54 PM 35.1 °F 25.5 °F 32.0 °F 89% 29.68 in 2.5 mi North 15.0 mph - 0.04 in Snow Light Snow
2:03 PM 34.0 °F 23.8 °F 32.0 °F 92% 29.66 in 2.5 mi North 16.1 mph - 0.00 in Snow Light Snow
2:19 PM 34.0 °F 24.6 °F 32.0 °F 92% 29.67 in 1.8 mi North 13.8 mph - 0.01 in Snow Light Snow
2:54 PM - - - N/A% 29.68 in 1.8 mi North 13.8 mph - 0.04 in   Unknown
3:18 PM - - - N/A% 29.69 in 2.0 mi North 15.0 mph - 0.01 in   Unknown
3:36 PM - - - N/A% 29.70 in 2.0 mi North 13.8 mph - 0.02 in   Unknown
3:45 PM - - - N/A% 29.70 in 1.8 mi North 13.8 mph - 0.02 in   Unknown
3:50 PM - - - N/A% 29.70 in 2.0 mi North 16.1 mph 20.7 mph N/A   Unknown
3:54 PM - - - N/A% 29.70 in 2.0 mi North 16.1 mph - 0.03 in   Unknown
4:21 PM - - - N/A% 29.72 in 2.5 mi North 19.6 mph - 0.01 in   Unknown
4:30 PM - - - N/A% 29.72 in 2.5 mi North 16.1 mph - 0.02 in   Unknown
4:37 PM - - - N/A% 29.73 in 3.0 mi North 16.1 mph - 0.02 in   Unknown
4:54 PM - - - N/A% 29.74 in 3.0 mi North 11.5 mph - 0.03 in   Unknown
5:24 PM - - - N/A% 29.75 in 2.5 mi North 11.5 mph - 0.02 in   Unknown
5:30 PM - - - N/A% 29.75 in 3.0 mi North 10.4 mph - 0.02 in   Unknown
5:44 PM - - - N/A% 29.76 in 2.5 mi North 6.9 mph - 0.03 in   Unknown
5:54 PM - - - N/A% 29.76 in 2.5 mi North 9.2 mph - 0.03 in   Unknown
6:04 PM - - - N/A% 29.77 in 3.0 mi North 11.5 mph - 0.01 in   Unknown
6:17 PM - - - N/A% 29.78 in 2.0 mi North 8.1 mph - 0.02 in   Unknown
6:25 PM - - - N/A% 29.78 in 1.5 mi North 6.9 mph - 0.02 in   Unknown
6:54 PM 33.1 °F 26.9 °F 32.0 °F 96% 29.83 in 2.5 mi North 6.9 mph - 0.04 in Snow Light Snow
7:34 PM 33.1 °F 27.7 °F 32.0 °F 96% 29.82 in 1.5 mi North 5.8 mph - 0.01 in Snow Light Snow
7:42 PM 33.1 °F 27.7 °F 32.0 °F 96% 29.82 in 1.8 mi North 5.8 mph - 0.02 in Snow Light Snow
7:54 PM 33.1 °F 28.7 °F 32.0 °F 96% 29.86 in 1.8 mi North 4.6 mph - 0.03 in Snow Light Snow
8:23 PM 33.1 °F 28.7 °F 32.0 °F 96% 29.83 in 2.0 mi North 4.6 mph - 0.01 in Snow Light Snow
8:52 PM 33.8 °F 29.6 °F 32.0 °F 93% 29.84 in 3.0 mi NNW 4.6 mph - 0.02 in Snow Light Snow
8:54 PM 33.1 °F 28.7 °F 32.0 °F 96% 29.87 in 3.0 mi NNW 4.6 mph - 0.02 in Snow Light Snow
9:15 PM 33.1 °F 25.5 °F 30.9 °F 92% 29.84 in 5.0 mi NNW 9.2 mph - 0.00 in Snow Light Snow
9:45 PM 33.1 °F 24.4 °F 30.9 °F 92% 29.85 in 5.0 mi NNW 11.5 mph - 0.00 in Snow Light Snow
9:54 PM 33.1 °F 24.4 °F 30.9 °F 92% 29.88 in 5.0 mi NNW 11.5 mph - 0.00 in Snow Light Snow
10:54 PM 33.1 °F 25.5 °F 30.9 °F 92% 29.87 in 10.0 mi NNW 9.2 mph - 0.01 in   Overcast
11:05 PM 33.1 °F 24.9 °F 30.9 °F 92% 29.84 in 10.0 mi NNW 10.4 mph - N/A   Overcast
11:54 PM 33.1 °F 23.4 °F 30.0 °F 89% 29.87 in 10.0 mi NNW 13.8 mph - N/A   Overcast